Regional Weather Roundup
Issued by NWS

Home | Current Version | Previous Version | Text Only | Print | Product List | Glossary Off
Versions: 1 2 3 4 5 6 7 8 9 10 11 12 13 14 15 16 17 18 19 20 21 22 23 24 25 26 27 28 29 30 31 32 33 34 35 36 37 38 39 40 41 42 43 44 45 46 47 48 49 50

746
ASUS44 KMEG 112300
RWRTN
TENNESSEE HOURLY STATE WEATHER ROUNDUP
NATIONAL WEATHER SERVICE MEMPHIS TN
500 PM CST THU FEB 11 2016

TNZ002-004-019-021-049-052-054-088>092-120000-
WEST TENNESSEE

CITY           SKY/WX    TMP DP  RH WIND       PRES   REMARKS
MEMPHIS INTL   MOCLDY    50  23  34 NE13      30.19R
NWS MEMPHIS      N/A     47 N/A N/A MISG        N/A
JACKSON        CLEAR     45  23  42 NE9       30.21R
DYERSBURG      CLEAR     41  23  48 NE9       30.26R
UNION CITY     CLEAR     37  25  60 NE10      30.25R WCI  30
PARIS          CLEAR     36  21  55 NE10      30.25R WCI  28
LEXINGTON      CLEAR     43  19  39 NE6       30.21R
$$

TNZ008-025-027-028-033-062-065-066-120000-
NORTH MIDDLE TENNESSEE

CITY           SKY/WX    TMP DP  RH WIND       PRES   REMARKS
NASHVILLE      PTCLDY    39  21  48 NE8       30.25R WCI  33
CLARKSVILLE    CLEAR     37  23  56 N9        30.27R WCI  30
COOKEVILLE     CLEAR     37  21  52 NE7       30.21R WCI  32
CROSSVILLE     CLEAR     37  21  52 N6        30.18R WCI  32
$$

TNZ061-075-076-078-094-096-097-120000-
SOUTH MIDDLE TENNESSEE

CITY           SKY/WX    TMP DP  RH WIND       PRES   REMARKS
TULLAHOMA      CLEAR     39  21  48 N5        30.20R
WINCHESTER     CLEAR     41  25  52 N7        30.20R
MCMINNVILLE    CLEAR     39  23  52 N6        30.21R WCI  35
COLUMBIA       CLEAR     43  25  49 NE6       30.20R
SHELBYVILLE    CLEAR     43  27  52 N6        30.22R
$$

TNZ017-018-042-046-047-120000-
NORTHEAST TENNESSEE

CITY           SKY/WX    TMP DP  RH WIND       PRES   REMARKS
TRI CITIES     PTCLDY    33  16  49 W7        30.18R WCI  27
$$

TNZ012-013-036-069-073-074-120000-
CENTRAL EAST TENNESSEE

CITY           SKY/WX    TMP DP  RH WIND       PRES   REMARKS
KNOXVILLE      PTCLDY    40  19  43 CALM      30.21R
OAK RIDGE      CLEAR     41  19  41 CALM      30.22R
GATLINBURG     CLEAR     36  18  48 CALM      30.20R
$$

TNZ083-085-099-120000-
SOUTHEAST TENNESSEE

CITY           SKY/WX    TMP DP  RH WIND       PRES   REMARKS
CHATTANOOGA    PTCLDY    45  21  38 NE5       30.20R
$$

SKY/WX REPORTED AS FAIR MEANS FEW OR NO CLOUDS BELOW
12 THOUSAND FEET.





USA.gov is the U.S. government's official web portal to all federal, state and local government web resources and services.